Regional Weather Roundup
Issued by NWS

Home | Current Version | Previous Version | Text Only | Print | Product List | Glossary On
Versions: 1 2 3 4 5 6 7 8 9 10 11 12 13 14 15 16 17 18 19 20 21 22 23 24 25 26 27 28 29 30 31 32 33 34 35 36 37 38 39 40 41 42 43 44 45 46 47 48 49 50
525
ASUS43 KLMK 271610
RWRKY
KENTUCKY REGIONAL WEATHER ROUNDUP
NATIONAL WEATHER SERVICE LOUISVILLE KY
1100 AM EST MON FEB 27 2017

NOTE "FAIR" INDICATES FEW OR NO CLOUDS BELOW 12,000 FEET
WITH NO SIGNIFICANT WEATHER AND/OR OBSTRUCTIONS TO VISIBILITY.

KYZ001>023-026-027-061>063-070>075-271700-
WESTERN AND SOUTH CENTRAL KENTUCKY

CITY           SKY/WX    TMP DP  RH WIND       PRES   REMARKS
PADUCAH        CLOUDY    52  44  74 S5        30.15S
HENDERSON      CLOUDY    46  41  81 E8        30.19S
OWENSBORO      CLOUDY    49  45  86 SE8       30.21R
HOPKINSVILLE   SUNNY     55  40  58 S10G17    30.19R
BOWLING GREEN  CLOUDY    50  44  80 E5        30.23S
GLASGOW        CLOUDY    48  41  74 E5        30.22F
$$

KYZ024-025-028>034-038-045-046-053-271700-
NORTH CENTRAL KENTUCKY

CITY           SKY/WX    TMP DP  RH WIND       PRES   REMARKS
LOUISVILLE/SDF LGT RAIN  46  42  86 SE8       30.24S FOG
LOUISVILLE/LOU LGT RAIN  46  42  86 SE5       30.25S FOG
FORT KNOX      CLOUDY    45  45  99 E6        30.21S
$$

KYZ035>037-039>044-047>052-055>060-089>105-271700-
NORTHEAST KENTUCKY

CITY           SKY/WX    TMP DP  RH WIND       PRES   REMARKS
LEXINGTON      LGT RAIN  43  39  86 SE10      30.27R
COVINGTON      CLOUDY    43  40  89 SE10      30.25R
FRANKFORT      LGT RAIN  44  40  85 SE6       30.26R FOG
$$

KYZ054-064>069-076>088-106>120-271700-
SOUTHEAST KENTUCKY

CITY           SKY/WX    TMP DP  RH WIND       PRES   REMARKS
JACKSON        PTSUNNY   47  24  40 VRB3      30.29R
LONDON         CLOUDY    50  26  39 SE5       30.27R
SOMERSET       CLOUDY    46  23  39 E3        30.27F
MIDDLESBORO    CLOUDY    49  22  35 CALM      30.31R
MONTICELLO     CLOUDY    49  26  41 E7        30.26F
$$





USA.gov is the U.S. government's official web portal to all federal, state and local government web resources and services.